CZ-4B R/B

Satellite information

Favourite Embed

Satellite Type and Status

ROCKET BODYIN ORBIT

Key statistics

Satellite CZ-4B R/B at a glance.

Uptime

1620

Days in orbit

Revolutions

≈ 14.2

Per day

Orbit

LEO

Low Earth Orbit

Inclination

66.1

Latest

Satellite identification and parameters

Extended collection of information and parameters for CZ-4B R/B.

Object identification

Identified? True

Debris? False

Object name: CZ-4B R/B

International designator: 2021-043D

Object number (NORAD): 48624

Object ID (CCSDS): 48624

Country: PEOPLES REPUBLIC OF CHINA (PRC)

Current information (Y/N): Y

RCS size: LARGE

Orbital parameters

Period: 101.3 minutes

Inclination: 66.0649 deg

SMA: 7198.341 km

Apoapsis: 932.043 km

Periapsis: 708.369 km

RAAN: 278.7788 deg

Eccentricy: 0.01553653

Argument of periapsis: 162.7408 deg

Mean anomaly: 197.9049 deg

Mean motion: 14.2152388 rev/day

Mean motion (dot): 0.00000197 rev/day2

B* drag term: 0.0001157528 1/REarth

Two-line elements (TLE)

Creation date: Oct. 25, 2025, 3:11 a.m.

Reference frame: TEME

Reference center: EARTH

Epoch: Oct. 24, 2025, 11:34 p.m. UTC

TLE line 0: 0 CZ-4B R/B

TLE line 1: 1 48624U 21043D 25297.98232023 .00000197 00000-0 11575-3 0 9997

TLE line 2: 2 48624 66.0649 278.7788 0155365 162.7408 197.9049 14.21523880230140

Live tracking on map

Real-time ground track for satellite CZ-4B R/B.

In-orbit conjunctions

A list of the most updated potential collisions computed for object CZ-4B R/B.

Target Orbit TCA Probability of collision Miss distance Type
THORAD AGENA D DEB LEO 2025-09-08 22:38:35 0.0002809994 869.0 (m) DEBRIS
FENGYUN 1C DEB SSO 2025-09-05 08:10:19 0.0002688267 968.0 (m) DEBRIS
FENGYUN 1C DEB SSO 2025-08-26 17:21:50 0.0001035649 95.0 (m) DEBRIS
CZ-6A DEB LEO 2025-01-04 02:16:14 0.0007218772 328.0 (m) DEBRIS
ERS 2 DEB SSO 2024-11-11 04:29:13 0.0001854443 483.0 (m) DEBRIS

Associated space launch

Haiyang (Chinese: "Ocean"), abbreviated HY, is a marine remote sensing satellite series planned by China.

CZ-4B R/B was lifted into orbit during the mission ‘Long March 4B | Haiyang 2D’, on board a Long March 4B space rocket.

The launch took place on May 19, 2021, 4:03 a.m. from Launch Area 4 (SLS-2 / 603).

For more information about the launch, click the button.

Launch to space Long March 4B | Haiyang 2D
Long March 4B | Haiyang 2D

Agency: N/A

Status: Launch Successful

Launch date: May 19, 2021, 4:03 a.m. UTC

Rocket: Long March 4B

Launch pad: Launch Area 4 (SLS-2 / 603)

Location: Jiuquan Satellite Launch Center, People's Republic of China

...

Latest news about this satellite

News about space launch
China launches Haiyang-2D Oceanography Satellite from Jiuquan

A Chinese Long March 4B rocket took a Haiyang oceanography satellite to orbit early Wednesday morning. Liftoff from the Jiuquan Satellite Launch Center occurred approximately 12:03 PM local time (04:03 UTC) on 19 May.

News about space launch
Chinese Long March rocket launches oceanography satellite

A Long March 4B rocket successfully launched an oceanography satellite Wednesday from northwestern China, hours before officials at a different spaceport scrubbed the planned launch of a cargo ship to deliver supplies to the Chinese space station.


Newsletter sign-up

Weekly statistics, charts and insights to help you stay on top of the space industry.